Temperatur und Luftfeuchte

Temperatur und Luftfeuchte

Die letzten 100 Messwerte

Nummer Datum und Zeit Sensor ID Temperatur in Celsius gef├╝hlte Temperatur Luftfeuchte in %
55418 2022-01-21 00:49:37 Terrasse 1.50 0.31 99.90
55417 2022-01-21 00:21:27 Terrasse 1.60 0.42 99.90
55416 2022-01-20 23:53:17 Terrasse 1.70 0.53 99.90
55415 2022-01-20 23:25:07 Terrasse 1.70 0.53 99.90
55414 2022-01-20 22:56:57 Terrasse 1.80 0.64 99.90
55413 2022-01-20 22:28:46 Terrasse 1.80 0.64 99.90
55412 2022-01-20 22:00:36 Terrasse 1.80 0.64 99.90
55411 2022-01-20 21:32:26 Terrasse 1.80 0.64 99.90
55410 2022-01-20 21:04:15 Terrasse 1.90 0.75 99.90
55409 2022-01-20 20:36:05 Terrasse 1.90 0.75 99.90
55408 2022-01-20 20:07:55 Terrasse 1.90 0.75 99.90
55407 2022-01-20 19:39:45 Terrasse 2.10 0.97 99.90
55406 2022-01-20 19:11:36 Terrasse 2.20 -1.50 1.00
55405 2022-01-20 18:43:26 Terrasse 2.30 -1.39 1.00
55404 2022-01-20 18:15:17 Terrasse 2.40 -1.28 1.00
55403 2022-01-20 17:47:07 Terrasse 2.50 -1.17 1.00
55402 2022-01-20 17:18:58 Terrasse 2.60 -1.06 1.00
55401 2022-01-20 16:50:49 Terrasse 2.80 1.74 99.90
55400 2022-01-20 16:22:40 Terrasse 3.20 -0.40 1.00
55399 2022-01-20 15:54:36 Terrasse 4.20 0.70 1.00
55398 2022-01-20 15:26:27 Terrasse 3.90 2.95 99.90
55397 2022-01-20 14:58:29 Terrasse 5.80 2.46 1.00
55396 2022-01-20 14:30:34 Terrasse 8.90 5.87 1.00
55395 2022-01-20 14:01:44 Terrasse 3.20 2.18 99.90
55394 2022-01-20 13:33:37 Terrasse 3.60 0.04 1.00
55393 2022-01-20 13:05:29 Terrasse 3.80 0.26 1.00
55392 2022-01-20 12:37:26 Terrasse 4.70 1.25 1.00
55391 2022-01-20 12:09:06 Terrasse 3.90 0.37 1.00
55390 2022-01-20 11:40:51 Terrasse 3.30 2.29 99.90
55389 2022-01-20 11:12:44 Terrasse 3.60 2.62 99.90
55388 2022-01-20 10:44:32 Terrasse 3.70 0.15 1.00
55387 2022-01-20 10:16:18 Terrasse 3.30 -0.29 1.00
55386 2022-01-20 09:48:06 Terrasse 2.90 -0.73 1.00
55385 2022-01-20 09:19:54 Terrasse 2.80 -0.84 1.00
55384 2022-01-20 08:51:46 Terrasse 2.90 -0.73 1.00
55383 2022-01-20 08:23:36 Terrasse 2.90 -0.73 1.00
55382 2022-01-20 07:55:25 Terrasse 3.00 -0.62 1.00
55381 2022-01-20 07:27:14 Terrasse 3.00 -0.62 1.00
55380 2022-01-20 06:59:03 Terrasse 2.90 -0.73 1.00
55379 2022-01-20 06:30:53 Terrasse 2.90 -0.73 1.00
55378 2022-01-20 06:02:41 Terrasse 2.90 -0.73 1.00
55377 2022-01-20 05:34:30 Terrasse 2.90 -0.73 1.00
55376 2022-01-20 05:06:20 Terrasse 3.00 -0.62 1.00
55375 2022-01-20 04:38:11 Terrasse 3.20 -0.40 1.00
55374 2022-01-20 04:10:01 Terrasse 3.40 -0.18 1.00
55373 2022-01-20 03:41:51 Terrasse 3.40 -0.18 1.00
55372 2022-01-20 03:13:40 Terrasse 3.40 -0.18 1.00
55371 2022-01-20 02:45:41 Terrasse 3.30 -0.29 1.00
55370 2022-01-20 02:17:26 Terrasse 3.30 -0.29 1.00
55369 2022-01-20 01:49:14 Terrasse 3.20 -0.40 1.00
55368 2022-01-20 01:21:05 Terrasse 3.10 -0.51 1.00
55367 2022-01-20 00:52:53 Terrasse 3.00 -0.62 1.00
55366 2022-01-20 00:24:41 Terrasse 2.80 -0.84 1.00
55365 2022-01-19 23:56:29 Terrasse 2.60 -1.06 1.00
55364 2022-01-19 23:28:17 Terrasse 2.50 -1.17 1.00
55363 2022-01-19 23:00:06 Terrasse 2.50 -1.17 1.00
55362 2022-01-19 22:31:55 Terrasse 2.50 -1.17 1.00
55361 2022-01-19 22:03:45 Terrasse 2.40 -1.28 1.00
55360 2022-01-19 21:35:34 Terrasse 2.40 -1.28 1.00
55359 2022-01-19 21:07:25 Terrasse 2.40 -1.28 1.00
55358 2022-01-19 20:39:15 Terrasse 2.40 -1.28 1.00
55357 2022-01-19 20:11:04 Terrasse 2.40 -1.28 1.00
55356 2022-01-19 19:42:53 Terrasse 2.40 -1.28 1.00
55355 2022-01-19 19:14:42 Terrasse 2.40 -1.28 1.00
55354 2022-01-19 18:46:31 Terrasse 2.30 -1.39 1.00
55353 2022-01-19 18:18:20 Terrasse 2.30 -1.39 1.00
55352 2022-01-19 17:50:09 Terrasse 2.30 -1.39 1.00
55351 2022-01-19 17:21:57 Terrasse 2.20 -1.50 1.00
55350 2022-01-19 16:53:46 Terrasse 2.30 -1.39 1.00
55349 2022-01-19 16:25:35 Terrasse 2.30 -1.39 1.00
55348 2022-01-19 15:57:25 Terrasse 2.30 -1.39 1.00
55347 2022-01-19 15:29:15 Terrasse 2.30 -1.39 1.00
55346 2022-01-19 15:01:04 Terrasse 2.50 -1.17 1.00
55345 2022-01-19 14:32:55 Terrasse 2.60 -1.06 1.00
55344 2022-01-19 14:04:46 Terrasse 2.80 -0.84 1.00
55343 2022-01-19 13:36:35 Terrasse 3.00 1.96 99.90
55342 2022-01-19 13:08:27 Terrasse 3.30 -0.23 3.40
55341 2022-01-19 12:42:26 Terrasse 3.60 0.04 1.00
55340 2022-01-19 12:10:49 Terrasse 3.70 0.15 1.00
55339 2022-01-19 11:37:27 Terrasse 4.00 3.06 99.90
55338 2022-01-19 11:09:40 Terrasse 4.40 0.92 1.00
55337 2022-01-19 10:41:22 Terrasse 4.00 0.48 1.00
55336 2022-01-19 10:13:50 Terrasse 3.80 2.84 99.90
55335 2022-01-19 09:46:11 Terrasse 3.30 -0.29 1.00
55334 2022-01-19 09:17:29 Terrasse 3.00 -0.62 1.00
55333 2022-01-19 08:49:19 Terrasse 3.10 -0.51 1.00
55332 2022-01-19 08:21:08 Terrasse 3.10 -0.51 1.00
55331 2022-01-19 07:52:57 Terrasse 3.30 1.79 80.50
55330 2022-01-19 07:24:47 Terrasse 3.40 2.40 99.90
55329 2022-01-19 06:56:36 Terrasse 3.50 2.47 98.20
55328 2022-01-19 06:28:26 Terrasse 3.50 0.24 12.80
55327 2022-01-19 06:00:17 Terrasse 3.80 2.84 99.90
55326 2022-01-19 05:32:07 Terrasse 3.90 1.39 40.00
55325 2022-01-19 05:03:56 Terrasse 4.00 0.48 1.00
55324 2022-01-19 04:35:47 Terrasse 4.00 2.22 67.60
55323 2022-01-19 04:07:36 Terrasse 4.10 0.59 1.00
55322 2022-01-19 03:39:27 Terrasse 4.20 0.70 1.00
55321 2022-01-19 03:11:18 Terrasse 4.30 3.39 99.90
55320 2022-01-19 02:43:08 Terrasse 4.30 3.22 93.30
55319 2022-01-19 02:14:57 Terrasse 4.40 1.41 19.60